Location: State Camp
(41.2367°N, 77.7828°W)
Time: 01:30:29
(UTC-04:00)

Amateur Radio Satellites - All Passes

Search period start: 17 September 2014 01:00
Search period end: 18 September 2014 01:00
Location: State Camp, 41.2367°N, 77.7828°W

Satellite Date Start Highest point End Downlink Frequencies (MHz)
Time Altitude Azimuth
Oscar 19 17 Sep 01:25:40 01:27:28 12° 89° (E) 01:29:16 437.125 CW, 437.150 USB
KITSAT 1 17 Sep 01:45:24 01:47:18 11° 6° (N) 01:49:11 435.175 FM
SO-50 17 Sep 01:45:51 01:47:38 12° 325° (NW) 01:49:26 436.795 FM
UOSAT-12 17 Sep 01:56:34 02:01:08 59° 306° (NW) 02:05:48 437.025 FM, 437.400 FM
Saudisat 1A 17 Sep 01:58:53 02:02:00 18° 42° (NE) 02:05:07 436.775 MHz
Oscar 16 17 Sep 02:01:46 02:06:13 28° 95° (E) 02:10:38 437.025 USB, Beacon 2401.1428
ITAMSAT 1 17 Sep 02:38:53 02:43:14 26° 95° (E) 02:47:34 435.822 SSB
AO-Echo 17 Sep 02:39:08 02:43:22 30° 96° (E) 02:47:40 ?
Uribyol 2 17 Sep 02:43:42 02:48:19 31° 96° (E) 02:52:55 436.500 FM
JAS-1B 17 Sep 02:45:51 02:51:03 33° 96° (E) 02:56:09 435.800 - 435.900 CW/SSB
TMSAT-1 17 Sep 02:50:31 02:52:01 11° 88° (E) 02:53:31 436.925 FM
RS-15 17 Sep 02:59:21 03:01:30 11° 94° (E) 03:03:39 29.354 - 29.394 USB, Beacon 29.352 USB
Oscar 19 17 Sep 03:02:13 03:07:25 80° 285° (WNW) 03:12:33 437.125 CW, 437.150 USB
AO-27 17 Sep 03:12:32 03:17:40 55° 101° (E) 03:22:47 436.795 MHz FM
Saudisat 1A 17 Sep 03:37:36 03:41:58 60° 241° (WSW) 03:46:17 436.775 MHz
KITSAT 1 17 Sep 03:40:10 03:46:25 24° 36° (NE) 03:52:38 435.175 FM
UOSAT-12 17 Sep 03:40:50 03:42:18 11° 326° (NNW) 03:43:46 437.025 FM, 437.400 FM
Oscar 16 17 Sep 03:40:55 03:45:35 35° 292° (WNW) 03:50:13 437.025 USB, Beacon 2401.1428
OPAL 17 Sep 03:44:11 03:47:50 20° 60° (ENE) 03:51:32 ?
AO-7 17 Sep 03:48:01 03:51:11 12° 87° (E) 03:54:20 29.400 - 29.500 MHz
Gurwin Techsat 1B 17 Sep 03:48:18 03:53:32 57° 101° (E) 03:58:45 435.225 FM
ISS 17 Sep 04:04:06 04:07:20 51° 140° (SE) 04:10:35 145.800 FM
AO-Echo 17 Sep 04:17:56 04:22:05 30° 292° (WNW) 04:26:19 ?
ITAMSAT 1 17 Sep 04:18:00 04:22:48 38° 291° (WNW) 04:27:35 435.822 SSB
Uribyol 2 17 Sep 04:23:08 04:27:45 33° 293° (WNW) 04:32:21 436.500 FM
TMSAT-1 17 Sep 04:27:16 04:32:36 86° 285° (WNW) 04:37:54 436.925 FM
JAS-1B 17 Sep 04:36:40 04:41:43 31° 296° (WNW) 04:46:36 435.800 - 435.900 CW/SSB
Oscar 19 17 Sep 04:44:45 04:45:53 11° 303° (WNW) 04:47:00 437.125 CW, 437.150 USB
AO-27 17 Sep 04:53:07 04:56:45 20° 297° (WNW) 05:00:23 436.795 MHz FM
RS-15 17 Sep 05:00:37 05:11:25 62° 114° (ESE) 05:22:04 29.354 - 29.394 USB, Beacon 29.352 USB
PANSAT 17 Sep 05:14:36 05:16:10 12° 181° (S) 05:17:45 not established
OPAL 17 Sep 05:21:12 05:26:16 56° 257° (WSW) 05:31:25 ?
Uosat F 17 Sep 05:24:48 05:29:46 59° 101° (ESE) 05:34:43 435.120 FM
Gurwin Techsat 1B 17 Sep 05:29:21 05:33:03 20° 297° (WNW) 05:36:45 435.225 FM
KITSAT 1 17 Sep 05:34:58 05:43:06 82° 59° (ENE) 05:51:10 435.175 FM
AO-7 17 Sep 05:37:01 05:45:19 72° 106° (ESE) 05:53:34 29.400 - 29.500 MHz
ISS 17 Sep 05:41:21 05:44:13 26° 337° (NNW) 05:47:05 145.800 FM
STRAND 1 17 Sep 05:59:07 06:02:43 20° 63° (ENE) 06:06:20 ?
Oscar 10/S400 17 Sep 06:04:11 06:13:50 10° 258° (WSW) 06:24:18 145.825 - 145.975 CW/USB, Beacon 145.810 USB
TMSAT-1 17 Sep 06:09:45 06:11:41 12° 302° (WNW) 06:13:37 436.925 FM
JAS-2 17 Sep 06:43:16 06:49:01 51° 100° (E) 06:55:29 435.800 - 435.900 CW/SSB, 435.910 FM
Hamsat 17 Sep 06:49:22 06:53:32 49° 99° (E) 06:57:37 145.90 MHz
SO-50 17 Sep 06:53:42 06:56:54 18° 40° (NE) 07:00:08 436.795 FM
Uosat F 17 Sep 07:04:49 07:08:05 18° 298° (WNW) 07:11:20 435.120 FM
RS-15 17 Sep 07:13:58 07:24:14 43° 318° (NW) 07:34:32 29.354 - 29.394 USB, Beacon 29.352 USB
ISS 17 Sep 07:19:58 07:21:48 14° 357° (N) 07:23:38 145.800 FM
AO-7 17 Sep 07:30:47 07:37:23 28° 305° (NW) 07:43:59 29.400 - 29.500 MHz
KITSAT 1 17 Sep 07:31:57 07:37:31 21° 258° (WSW) 07:43:06 435.175 FM
STRAND 1 17 Sep 07:36:35 07:41:31 52° 260° (W) 07:46:29 ?
Hamsat 17 Sep 08:26:39 08:29:04 15° 296° (WNW) 08:31:28 145.90 MHz
JAS-2 17 Sep 08:29:08 08:33:53 26° 294° (WNW) 08:39:04 435.800 - 435.900 CW/SSB, 435.910 FM
SO-50 17 Sep 08:33:13 08:38:02 79° 239° (WSW) 08:42:54 436.795 FM
SO-67 17 Sep 08:40:37 08:43:59 50° 285° (WNW) 08:47:19 435.3500 MHz FM
UOSAT-12 17 Sep 08:46:59 08:50:18 19° 41° (NE) 08:53:36 437.025 FM, 437.400 FM
ISS 17 Sep 08:56:55 08:59:29 20° 18° (NNE) 09:02:02 145.800 FM
HO-68 17 Sep 09:25:05 09:31:20 31° 96° (E) 09:37:31 435.675 MHz FM
MaSat-1 17 Sep 09:32:04 09:37:06 84° 114° (ESE) 09:42:07 437.345 MHz
RS-15 17 Sep 09:32:55 09:40:37 21° 351° (N) 09:48:24 29.354 - 29.394 USB, Beacon 29.352 USB
Oscar 11 17 Sep 09:50:17 09:52:26 13° 91° (E) 09:54:35 145.825 FM, Beacon 2401.500 USB
UKube-1 17 Sep 10:03:04 10:06:42 25° 96° (E) 10:10:18 145.840 MHz, 145.915 MHz
UOSAT-12 17 Sep 10:26:14 10:30:57 70° 240° (WSW) 10:35:34 437.025 FM, 437.400 FM
ISS 17 Sep 10:33:14 10:36:34 89° 38° (NE) 10:39:54 145.800 FM
FUNcube-1 17 Sep 11:07:15 11:11:37 40° 98° (E) 11:15:55 145.950 - 145.970 MHz USB
MaSat-1 17 Sep 11:11:30 11:14:30 16° 312° (NW) 11:17:28 437.345 MHz
HO-68 17 Sep 11:12:22 11:19:14 51° 293° (WNW) 11:26:06 435.675 MHz FM
Oscar 11 17 Sep 11:24:41 11:28:56 53° 287° (WNW) 11:33:09 145.825 FM, Beacon 2401.500 USB
UKube-1 17 Sep 11:39:06 11:42:51 29° 292° (WNW) 11:46:36 145.840 MHz, 145.915 MHz
RS-15 17 Sep 11:49:06 11:58:10 28° 27° (NNE) 12:07:26 29.354 - 29.394 USB, Beacon 29.352 USB
ISS 17 Sep 12:12:24 12:12:47 10° 232° (SW) 12:13:11 145.800 FM
Sapphire 17 Sep 12:39:49 12:44:38 34° 110° (ESE) 12:49:29 437.095 MHz 1200 baud AX-25 AFSK
Oscar 19 17 Sep 12:41:46 12:45:21 19° 63° (ENE) 12:48:57 437.125 CW, 437.150 USB
FUNcube-1 17 Sep 12:44:15 12:47:43 21° 294° (WNW) 12:51:10 145.950 - 145.970 MHz USB
AO-27 17 Sep 12:55:42 12:57:12 11° 57° (ENE) 12:58:42 436.795 MHz FM
PCSat 17 Sep 13:06:29 13:11:49 64° 115° (ESE) 13:17:11 145.825 MHz
Oscar 16 17 Sep 13:18:34 13:23:25 42° 70° (ENE) 13:28:17 437.025 USB, Beacon 2401.1428
JAS-1B 17 Sep 13:29:03 13:36:51 39° 67° (ENE) 13:43:33 435.800 - 435.900 CW/SSB
Gurwin Techsat 1B 17 Sep 13:33:31 13:35:32 12° 58° (ENE) 13:37:34 435.225 FM
AO-Echo 17 Sep 13:52:20 13:56:43 38° 70° (ENE) 14:01:04 ?
ITAMSAT 1 17 Sep 13:56:50 14:01:37 40° 69° (ENE) 14:06:25 435.822 SSB
Uribyol 2 17 Sep 14:01:31 14:06:26 47° 70° (ENE) 14:11:23 436.500 FM
RS-15 17 Sep 14:01:36 14:12:44 75° 55° (NE) 14:24:19 29.354 - 29.394 USB, Beacon 29.352 USB
TMSAT-1 17 Sep 14:10:15 14:13:56 20° 63° (ENE) 14:17:38 436.925 FM
Oscar 19 17 Sep 14:19:09 14:24:14 56° 259° (W) 14:29:22 437.125 CW, 437.150 USB
Sapphire 17 Sep 14:23:04 14:28:00 35° 308° (NW) 14:32:59 437.095 MHz 1200 baud AX-25 AFSK
AO-27 17 Sep 14:30:43 14:35:53 84° 75° (ENE) 14:41:05 436.795 MHz FM
AO-7 17 Sep 14:46:17 14:52:14 22° 52° (NE) 14:58:09 29.400 - 29.500 MHz
PCSat 17 Sep 14:51:32 14:55:41 22° 314° (NW) 14:59:51 145.825 MHz
Oscar 16 17 Sep 14:58:46 15:02:54 24° 266° (W) 15:07:04 437.025 USB, Beacon 2401.1428
Uosat F 17 Sep 15:04:21 15:05:04 10° 57° (ENE) 15:05:47 435.120 FM
Gurwin Techsat 1B 17 Sep 15:09:23 15:14:42 88° 75° (ENE) 15:20:02 435.225 FM
JAS-1B 17 Sep 15:18:50 15:27:17 47° 260° (W) 15:34:31 435.800 - 435.900 CW/SSB
Oscar 10/S400 17 Sep 15:30:53 15:46:53 27° 147° (SSE) 16:04:07 145.825 - 145.975 CW/USB, Beacon 145.810 USB
AO-Echo 17 Sep 15:31:58 15:35:37 22° 266° (W) 15:39:15 ?
ITAMSAT 1 17 Sep 15:37:02 15:41:13 25° 265° (W) 15:45:25 435.822 SSB
Uribyol 2 17 Sep 15:42:17 15:46:08 21° 267° (W) 15:50:01 436.500 FM
TMSAT-1 17 Sep 15:48:13 15:53:24 56° 260° (W) 15:58:38 436.925 FM
AO-27 17 Sep 16:14:32 16:16:01 11° 271° (W) 16:17:31 436.795 MHz FM
RS-15 17 Sep 16:15:00 16:24:07 31° 256° (WSW) 16:33:34 29.354 - 29.394 USB, Beacon 29.352 USB
AO-7 17 Sep 16:35:39 16:44:00 88° 252° (WSW) 16:52:21 29.400 - 29.500 MHz
Uosat F 17 Sep 16:38:01 16:43:01 81° 75° (ENE) 16:48:02 435.120 FM
Gurwin Techsat 1B 17 Sep 16:53:59 16:55:20 11° 272° (W) 16:56:41 435.225 FM
JAS-2 17 Sep 16:58:25 17:01:54 18° 62° (ENE) 17:05:21 435.800 - 435.900 CW/SSB, 435.910 FM
OPAL 17 Sep 17:31:18 17:36:07 38° 100° (E) 17:40:51 ?
Hamsat 17 Sep 17:42:33 17:46:33 36° 71° (ENE) 17:50:32 145.90 MHz
Saudisat 1A 17 Sep 17:44:08 17:48:06 34° 115° (ESE) 17:52:06 436.775 MHz
MaSat-1 17 Sep 17:50:13 17:52:45 16° 48° (NE) 17:55:04 437.345 MHz
Uosat F 17 Sep 18:21:03 18:22:23 11° 271° (W) 18:23:44 435.120 FM
AO-7 17 Sep 18:32:43 18:37:48 17° 270° (W) 18:42:55 29.400 - 29.500 MHz
JAS-2 17 Sep 18:41:24 18:46:38 54° 259° (W) 18:51:43 435.800 - 435.900 CW/SSB, 435.910 FM
OPAL 17 Sep 19:10:29 19:14:49 28° 297° (WNW) 19:19:05 ?
SO-67 17 Sep 19:13:14 19:16:34 46° 74° (ENE) 19:19:54 435.3500 MHz FM
Hamsat 17 Sep 19:19:22 19:22:35 20° 267° (W) 19:25:50 145.90 MHz
Saudisat 1A 17 Sep 19:23:55 19:27:42 28° 313° (NW) 19:31:31 436.775 MHz
MaSat-1 17 Sep 19:26:13 19:29:49 38° 251° (WSW) 19:32:55 437.345 MHz
STRAND 1 17 Sep 19:47:00 19:52:01 53° 100° (E) 19:57:02 ?
HO-68 17 Sep 19:54:37 20:00:07 25° 58° (ENE) 20:05:38 435.675 MHz FM
KITSAT 1 17 Sep 20:02:44 20:10:36 59° 114° (ESE) 20:18:30 435.175 FM
PCSat 17 Sep 20:14:03 20:15:01 10° 34° (NE) 20:15:58 145.825 MHz
Oscar 11 17 Sep 20:46:26 20:48:02 12° 62° (ENE) 20:49:39 145.825 FM, Beacon 2401.500 USB
UKube-1 17 Sep 20:58:54 21:02:18 23° 67° (ENE) 21:05:43 145.840 MHz, 145.915 MHz
STRAND 1 17 Sep 21:27:11 21:30:48 20° 297° (WNW) 21:34:25 ?
Sapphire 17 Sep 21:27:28 21:32:14 30° 50° (NE) 21:36:58 437.095 MHz 1200 baud AX-25 AFSK
HO-68 17 Sep 21:40:08 21:47:13 68° 256° (WSW) 21:54:21 435.675 MHz FM
PCSat 17 Sep 21:54:28 21:59:46 50° 56° (NE) 22:05:01 145.825 MHz
KITSAT 1 17 Sep 21:59:03 22:06:22 37° 315° (NW) 22:13:45 435.175 FM
FUNcube-1 17 Sep 22:03:48 22:07:40 31° 69° (ENE) 22:11:38 145.950 - 145.970 MHz USB
Oscar 11 17 Sep 22:19:17 22:23:38 70° 258° (WSW) 22:28:01 145.825 FM, Beacon 2401.500 USB
UKube-1 17 Sep 22:34:28 22:38:20 32° 263° (W) 22:42:14 145.840 MHz, 145.915 MHz
SO-50 17 Sep 22:48:35 22:52:34 33° 114° (ESE) 22:56:40 436.795 FM
Sapphire 17 Sep 23:10:41 23:15:46 42° 248° (WSW) 23:20:50 437.095 MHz 1200 baud AX-25 AFSK
PCSat 17 Sep 23:38:39 23:42:49 23° 253° (WSW) 23:46:58 145.825 MHz
FUNcube-1 17 Sep 23:40:33 23:44:05 24° 266° (W) 23:47:41 145.950 - 145.970 MHz USB
KITSAT 1 18 Sep 00:01:02 00:04:38 13° 342° (NNW) 00:08:14 435.175 FM
SO-50 18 Sep 00:29:11 00:33:08 29° 313° (NW) 00:37:11 436.795 FM
UOSAT-12 18 Sep 00:37:30 00:41:41 35° 115° (ESE) 00:45:57 437.025 FM, 437.400 FM
